sat.trackr.live / text

‹ back to catalog

YAOGAN-36 04C

NORAD 54750 · 2022-171E

PAYLOAD ACTIVE UNKNOWN

§ Identity

Operator
Country
PRC
Launch date
2022-12-14
Launch site
XICLF
Launch vehicle
Mass (kg)
RCS (m²)

External: N2YO · Heavens-Above · Gunter

§ Orbital elements

Epoch: 2026-05-24T22:55:46.384608Z

Period
94.01 min
Inclination
34.9818°
Eccentricity
0.0006828
Mean motion
15.31822610 rev/d
Perigee alt
465.7 km
Apogee alt
475.1 km
Semi-major
6,848.5 km
B*
4.4826e-4
RAAN
331.6958°
Arg perigee
281.5873°
Mean anomaly
78.4077°
Rev number
19,192

§ Raw data

YAOGAN-36 04C1 54750U 22171E   26144.95539797  .00014132  00000+0  44826-3 0  99922 54750  34.9818 331.6958 0006828 281.5873  78.4077 15.31822610191923

JSON: /api/v1/satellites/54750 · /tle

For live sub-satellite position, see the globe view (requires WebGL).

§ Visibility from observer

Set your observer location to see the next 7 days of passes ≥ 10°. The values pass through the URL so the page stays shareable.

No JS? Fill the form by hand. The geolocation button needs JavaScript.